Dewpoint
1 0 -1 -1 -0 0 -0 0 0 -0 -1 -2 -17 -26 -24 -28 -28 -26 -27 -26 -25 -25 -24 -23 -22 -6 -5
1 1 -1 -1 -1 0 0 0 -0 -1 -2 -7 -21 -23 -25 -27 -26 -26 -25 -25 -25 -24 -23 -23 -12 -11 -9
2 1 -1 -1 -1 -0 0 0 -1 -1 -3 -16 -20 -23 -25 -24 -25 -24 -24 -24 -24 -23 -22 -20 -19 -19 -14
1 -1 -2 -2 -1 -0 -1 -1 -2 -2 -8 -20 -20 -24 -23 -23 -24 -24 -23 -24 -23 -22 -20 -20 -20 -18 -17
-1 -1 -2 -2 -1 -0 0 -0 -2 -8 -17 -17 -22 -23 -23 -23 -24 -24 -24 -24 -21 -20 -20 -19 -18 -18 -18
-2 -1 -1 -1 2 1 -1 -4 -4 -5 -13 -17 -22 -22 -23 -23 -24 -24 -24 -22 -19 -20 -19 -18 -17 -17 -18
-0 -1 1 1 1 -2 -4 -2 -12 -14 -15 -21 -23 -22 -23 -23 -24 -24 -22 -20 -20 -18 -18 -18 -18 -18 -19
-1 -2 -2 -2 -1 -1 -6 -15 -11 -12 -19 -21 -22 -22 -23 -24 -24 -23 -20 -19 -18 -18 -18 -19 -19 -19 -20
-3 0 0 -2 -10 -12 -8 -7 -14 -19 -20 -20 -22 -23 -24 -25 -22 -21 -19 -19 -18 -18 -19 -19 -20 -20 -19
0 0 -5 -9 -5 -3 -4 -13 -18 -18 -20 -20 -21 -22 -23 -22 -21 -20 -19 -19 -19 -19 -20 -20 -20 -18 -18
-0 -3 -3 -3 -3 -8 -16 -19 -19 -20 -21 -21 -22 -21 -19 -19 -22 -20 -20 -20 -20 -20 -20 -20 -20 -18 -17
-2 -3 -3 -6 -14 -18 -19 -19 -20 -20 -21 -21 -21 -19 -18 -18 -19 -20 -20 -20 -20 -19 -19 -19 -19 -17 -16
-3 -4 -12 -16 -17 -18 -19 -20 -20 -21 -21 -20 -19 -18 -18 -18 -18 -21 -20 -20 -19 -18 -17 -17 -17 -17 -17
-5 -13 -15 -16 -17 -19 -19 -20 -21 -20 -19 -19 -18 -19 -19 -20 -20 -21 -19 -17 -18 -16 -15 -16 -17 -17 -16
-9 -14 -15 -16 -18 -19 -19 -20 -19 -19 -19 -19 -19 -20 -21 -22 -21 -18 -18 -18 -16 -15 -15 -16 -17 -17 -16
-12 -14 -15 -17 -18 -19 -20 -19 -18 -18 -19 -19 -20 -22 -23 -23 -19 -18 -18 -15 -15 -16 -15 -15 -16 -17 -17
-10 -14 -16 -18 -19 -19 -19 -19 -19 -19 -19 -20 -21 -22 -22 -21 -20 -17 -15 -15 -15 -16 -15 -15 -16 -18 -18
Wind_Speed
22 21 21 23 26 26 26 22 19 18 17 18 18 18 16 15 15 16 18 20 21 23 23 24 24 19 19
27 25 22 22 24 25 23 22 21 19 17 19 18 18 16 15 17 19 20 21 23 24 25 25 21 22 24
30 25 22 22 23 24 22 23 20 20 19 19 19 17 16 16 18 20 21 23 24 24 23 23 24 27 26
29 24 23 23 24 22 22 18 20 20 19 19 18 16 16 17 19 20 22 23 23 22 22 24 26 26 27
27 27 24 24 23 19 21 21 20 19 19 19 18 16 17 18 19 21 23 23 20 20 24 25 26 27 28
28 27 24 19 23 26 23 21 17 21 17 18 16 16 17 18 20 21 22 19 19 23 24 25 26 28 29
26 25 25 25 25 22 20 18 17 18 16 15 15 15 16 17 21 20 18 16 22 22 23 25 27 29 30
23 20 19 19 20 20 15 16 17 18 16 14 16 15 14 17 20 16 14 20 20 20 23 25 26 29 29
23 23 24 18 15 16 16 16 17 16 13 13 14 15 16 15 13 12 18 18 20 21 22 24 25 29 30
25 24 18 18 19 21 16 17 15 13 13 10 12 15 11 9 13 17 16 17 21 24 24 24 27 31 33
21 21 20 20 17 15 16 15 13 12 12 11 12 13 14 17 16 17 19 21 22 23 23 24 26 28 33
21 19 18 16 16 15 13 12 11 11 11 11 11 12 15 19 21 21 20 21 23 23 26 27 27 30 29
18 17 16 15 14 12 11 10 10 9 9 9 10 12 15 18 23 24 26 24 20 26 28 30 31 32 35
18 16 15 14 13 12 11 9 8 8 8 9 10 13 16 18 21 21 18 22 26 26 30 33 32 31 31
17 16 15 14 13 11 9 7 7 7 8 9 11 14 16 18 19 15 19 23 26 30 31 34 32 29 28
16 16 15 14 12 10 8 6 6 7 8 10 13 15 17 16 17 19 21 27 28 29 29 33 35 28 29
17 16 15 13 11 9 7 6 6 7 8 11 14 16 17 19 20 16 22 25 27 29 29 31 36 37 35
Wind_Direction
242 253 250 239 240 234 242 247 253 262 269 284 293 296 299 300 299 312 311 312 314 314 314 313 314 318 312
245 251 248 239 241 237 241 243 252 261 272 279 290 292 293 297 310 309 309 310 312 314 314 314 314 312 314
248 249 241 238 237 233 235 242 247 262 270 281 288 289 290 304 304 307 309 310 311 311 314 315 314 313 315
245 243 235 233 230 228 236 249 253 263 272 279 286 284 293 301 303 305 307 308 311 313 315 314 314 314 316
237 235 229 224 226 234 243 246 250 259 273 277 279 284 295 300 300 304 307 311 311 314 316 313 315 314 315
230 231 232 220 245 236 234 233 251 263 264 271 276 287 291 296 303 307 309 310 313 316 316 314 315 313 315
241 230 228 235 238 232 228 253 240 254 265 270 277 282 290 300 304 308 308 309 315 315 314 315 314 312 312
218 223 226 232 234 242 238 232 248 258 263 268 278 286 296 303 303 307 315 316 312 312 314 314 313 311 314
217 228 235 234 230 222 229 240 244 256 256 269 279 293 305 305 302 312 319 316 315 316 315 316 316 316 317
226 236 218 212 220 231 237 234 232 249 269 275 295 310 319 307 310 316 321 320 320 321 320 321 324 321 321
229 217 218 227 231 228 227 229 235 241 270 285 300 308 309 305 318 323 332 325 322 319 320 325 326 324 324
219 214 215 212 216 219 223 231 241 254 277 289 302 308 309 313 321 328 329 326 327 326 328 329 328 329 328
208 205 203 210 214 218 224 234 249 265 281 296 306 311 315 315 317 330 327 329 332 331 329 329 333 332 330
200 200 208 209 214 219 227 241 260 275 293 303 308 312 315 316 313 324 325 325 333 333 331 328 333 337 335
197 203 204 210 214 221 231 247 266 285 298 306 310 313 315 317 320 329 330 332 335 333 331 328 335 343 340
197 203 208 211 214 220 232 250 270 289 303 312 316 318 320 330 336 338 338 336 333 330 333 332 333 345 338
201 206 207 210 213 221 235 249 270 295 309 319 321 324 328 333 333 345 330 332 330 333 336 334 330 335 335
Height
1553 1554 1555 1557 1559 1561 1561 1563 1564 1564 1565 1564 1565 1564 1563 1561 1558 1556 1555 1552 1550 1548 1546 1543 1540 1539 1537
1547 1549 1551 1552 1555 1557 1558 1559 1559 1560 1561 1560 1560 1560 1558 1557 1554 1552 1550 1547 1545 1543 1540 1538 1535 1533 1530
1544 1545 1547 1548 1550 1553 1554 1554 1555 1556 1557 1557 1557 1556 1554 1551 1550 1548 1546 1544 1540 1537 1535 1532 1530 1528 1524
1538 1541 1543 1544 1546 1549 1549 1550 1551 1552 1552 1552 1552 1551 1550 1548 1546 1544 1542 1539 1535 1533 1531 1528 1525 1521 1519
1533 1536 1537 1539 1542 1545 1545 1546 1547 1547 1548 1548 1547 1546 1545 1544 1542 1540 1537 1533 1531 1529 1526 1523 1519 1516 1514
1528 1530 1533 1536 1539 1539 1540 1541 1543 1543 1543 1543 1543 1542 1541 1539 1538 1535 1532 1529 1527 1525 1521 1518 1515 1511 1508
1526 1528 1530 1532 1535 1536 1536 1537 1538 1539 1539 1539 1539 1538 1537 1535 1533 1530 1528 1526 1524 1520 1517 1513 1510 1506 1503
1522 1525 1527 1529 1531 1532 1533 1535 1536 1536 1537 1536 1535 1534 1533 1531 1528 1526 1525 1522 1519 1516 1513 1509 1505 1501 1497
1518 1521 1522 1524 1527 1528 1530 1531 1532 1533 1533 1533 1531 1530 1529 1526 1524 1523 1521 1518 1515 1512 1509 1505 1500 1495 1491
1513 1516 1517 1521 1523 1524 1526 1528 1529 1529 1529 1530 1528 1526 1524 1523 1521 1520 1517 1514 1511 1507 1504 1500 1496 1489 1484
1509 1512 1514 1516 1519 1522 1523 1524 1525 1526 1526 1525 1524 1523 1521 1519 1518 1515 1512 1509 1506 1503 1500 1496 1491 1487 1479
1505 1508 1511 1514 1517 1518 1520 1521 1522 1523 1522 1521 1520 1519 1517 1514 1512 1511 1508 1504 1500 1496 1493 1490 1486 1481 1477
1502 1505 1509 1512 1515 1516 1518 1518 1519 1519 1519 1518 1517 1515 1513 1510 1507 1505 1500 1498 1496 1492 1488 1484 1479 1474 1466
1500 1503 1507 1510 1512 1513 1515 1516 1516 1516 1515 1515 1514 1513 1510 1507 1504 1501 1499 1494 1491 1488 1483 1478 1474 1469 1463
1497 1502 1505 1507 1509 1511 1512 1513 1512 1512 1512 1512 1511 1509 1507 1504 1500 1498 1495 1491 1488 1483 1478 1472 1469 1464 1458
1496 1500 1503 1505 1508 1509 1510 1510 1510 1509 1509 1509 1507 1505 1503 1500 1496 1494 1491 1487 1484 1480 1475 1468 1461 1460 1455
1495 1498 1501 1503 1506 1507 1507 1508 1508 1508 1507 1506 1504 1502 1499 1495 1494 1491 1488 1485 1480 1475 1471 1466 1458 1452 1448